Meteo Giornale » Osservazioni meteo Italia » Rimini

ore: 16:45 - Osservazioni Meteo Rimini
Lat. 44° 2' N Lon. 12° 37' E Alt. 12 metri s.l.m.

nuvoloso Europe/Rome

19 °C

Nuvoloso

Temp. 24 Ore

14 °C

19 °C

Nord/NOvest

14.8 Km/h

Dew point 15 °C

Umidità 77 %

Visibilità  10 Km

Il sole sorge alle ore 06:59

Il sole tramonta alle ore 19:02

Data e Ora Cielo e Fenomeni T °C DP °C Um. % Pres. hPa Vis. km Vento km/h
Oggi h: 16:45 nuvoloso Nuvoloso 19 15 77 1019 10 N/NO 14.8
Oggi h: 16:15 nuvoloso Nuvoloso 19 15 77 1019 10 O/NO 14.8
Oggi h: 15:45 nuvoloso Nuvoloso 19 15 77 1019 10 N/NO 14.8
Oggi h: 15:15 nuvoloso Nuvoloso 19 16 82 1019 10 NO 18.5
Oggi h: 14:45 nuvoloso Nuvoloso 19 17 88 1019 10 NO 16.7
Oggi h: 14:15 coperto_pioggia Pioggia Debole 18 16 88 1018 10 O/NO 20.3
Oggi h: 13:45 coperto_pioggia Pioggia Debole 18 16 88 1018 10 O 18.5
Oggi h: 13:15 coperto_pioggia Pioggia Debole 17 16 93 1018 10 O 24
Oggi h: 12:45 coperto_pioggia Pioggia Debole 17 15 88 1018 10 O 18.5
Oggi h: 12:15 molto_nuvoloso Molto Nuvoloso 16 15 93 1018 10 O 20.3
Oggi h: 11:45 coperto_pioggia Pioggia Debole 16 15 93 1018 10 O 16.7
Oggi h: 11:15 molto_nuvoloso Molto Nuvoloso 16 15 93 1018 10 O 14.8
Oggi h: 10:45 coperto_pioggia Pioggia Debole 16 15 93 1018 10 O 18.5
Oggi h: 10:15 coperto_pioggia Pioggia Debole 15 13 87 1017 10 O 20.3
Oggi h: 09:45 coperto_pioggia Pioggia Debole 15 13 87 1017 10 O 20.3
Oggi h: 09:15 molto_nuvoloso Molto Nuvoloso 15 13 87 1017 10 O/NO 20.3
Oggi h: 08:45 coperto_pioggia Pioggia Debole 15 13 87 1017 10 O 20.3
Oggi h: 08:15 molto_nuvoloso Molto Nuvoloso 15 13 87 1017 10 O 20.3
Oggi h: 07:45 molto_nuvoloso Molto Nuvoloso 15 13 87 1017 10 O 22.2
Oggi h: 07:15 molto_nuvoloso Molto Nuvoloso 15 13 87 1017 10 O 22.2
Oggi h: 06:45 coperto_pioggia Pioggia Debole 15 14 93 1017 10 O 20.3
Oggi h: 06:15 coperto_pioggia Pioggia Debole 15 14 93 1017 10 O 18.5
Oggi h: 05:45 coperto_pioggia Pioggia Debole 15 14 93 1017 10 O 18.5
Oggi h: 05:15 coperto_pioggia Pioggia Debole 15 14 93 1017 10 O 18.5
Oggi h: 04:45 molto_nuvoloso Molto Nuvoloso 15 14 93 1017 10 O 20.3
Oggi h: 04:15 molto_nuvoloso Molto Nuvoloso 16 14 87 1017 10 O 14.8
Oggi h: 03:45 molto_nuvoloso Molto Nuvoloso 15 14 93 1017 10 O 13
Oggi h: 03:15 molto_nuvoloso Molto Nuvoloso 16 15 93 1017 10 O 13
Oggi h: 02:45 nuvoloso Nuvoloso 15 14 93 1018 10 O 14.8
Oggi h: 02:15 nuvoloso Nuvoloso 15 14 93 1018 10 O 14.8
Oggi h: 01:45 nuvoloso Nuvoloso 15 14 93 1018 10 O 14.8
Oggi h: 01:15 nuvoloso Nuvoloso 14 13 93 1018 10 O 9.3
Oggi h: 00:45 nuvoloso Nuvoloso 14 13 93 1018 10 O 7.4
Oggi h: 00:15 nuvoloso Nuvoloso 14 13 93 1018 10 N 3.7
Ieri h: 23:45 nuvoloso Nuvoloso 14 13 93 1018 10 N 3.7
Ieri h: 23:15 nuvoloso Nuvoloso 14 14 100 1018 10 N 3.7
Ieri h: 22:45 nuvoloso Nuvoloso 15 14 93 1018 10 N 3.7
Ieri h: 22:15 nuvoloso Nuvoloso 15 14 93 1018 10 N 5.5
Ieri h: 21:45 nuvoloso Nuvoloso 15 14 93 1018 10 N 3.7
Ieri h: 21:15 nuvoloso Nuvoloso 15 14 93 1018 10 N 3.7
Ieri h: 20:45 nuvoloso Nuvoloso 15 15 100 1018 10 N 5.5
Ieri h: 20:15 nuvoloso Nuvoloso 15 15 100 1018 10 N 5.5
Ieri h: 19:45 nuvoloso Nuvoloso 16 15 93 1018 10 N 3.7
Ieri h: 19:15 nuvoloso Nuvoloso 17 15 88 1018 10 N 3.7
Ieri h: 18:45 nuvoloso Nuvoloso 17 16 93 1018 10 N 3.7
Ieri h: 17:45 nuvoloso Nuvoloso 18 17 93 1018 10 N 3.7